TimePST,TemperatureF,Dew PointF,Humidity,Sea Level PressureIn,VisibilityMPH,Wind Direction,Wind SpeedMPH,Gust SpeedMPH,PrecipitationIn,Events,Conditions,WindDirDegrees,DateUTC
12:53 AM,14.0,9.0,80,30.12,10.0,South,9.2,-,N/A,,Clear,170,2013-02-22 08:53:00
1:53 AM,12.9,9.0,84,30.13,10.0,South,8.1,-,N/A,,Scattered Clouds,170,2013-02-22 09:53:00
2:53 AM,12.9,9.0,84,30.13,10.0,South,6.9,-,N/A,,Mostly Cloudy,190,2013-02-22 10:53:00
3:53 AM,12.0,8.1,84,30.13,10.0,SSE,8.1,-,N/A,,Overcast,160,2013-02-22 11:53:00
4:53 AM,10.9,7.0,84,30.17,10.0,South,6.9,-,N/A,,Mostly Cloudy,170,2013-02-22 12:53:00
5:53 AM,10.0,6.1,84,30.20,10.0,South,8.1,-,N/A,,Clear,180,2013-02-22 13:53:00
6:53 AM,10.9,7.0,84,30.21,10.0,SSE,6.9,-,N/A,,Scattered Clouds,160,2013-02-22 14:53:00
7:53 AM,19.9,12.9,74,30.19,10.0,West,5.8,-,N/A,,Mostly Cloudy,280,2013-02-22 15:53:00
8:53 AM,27.0,14.0,58,30.20,10.0,North,9.2,-,N/A,,Scattered Clouds,10,2013-02-22 16:53:00
9:53 AM,30.0,15.1,54,30.19,10.0,NNE,9.2,-,N/A,,Clear,20,2013-02-22 17:53:00
10:53 AM,30.9,15.1,52,30.20,10.0,NNE,8.1,-,N/A,,Clear,20,2013-02-22 18:53:00
11:53 AM,33.1,14.0,46,30.18,10.0,North,3.5,-,N/A,,Clear,350,2013-02-22 19:53:00
12:53 PM,34.0,16.0,48,30.17,10.0,North,12.7,16.1,0.00,Rain,Light Rain,10,2013-02-22 20:53:00
1:53 PM,33.1,15.1,48,30.17,10.0,North,9.2,-,0.00,,Overcast,360,2013-02-22 21:53:00
2:53 PM,34.0,16.0,48,30.17,10.0,NW,9.2,-,N/A,,Overcast,320,2013-02-22 22:53:00
3:53 PM,34.0,16.0,48,30.16,10.0,WNW,4.6,-,N/A,,Clear,300,2013-02-22 23:53:00
4:53 PM,30.0,18.0,61,30.18,10.0,NW,5.8,-,N/A,,Clear,320,2013-02-23 00:53:00
5:53 PM,27.0,19.0,72,30.20,10.0,West,3.5,-,N/A,,Clear,280,2013-02-23 01:53:00
6:53 PM,28.0,16.0,61,30.20,10.0,Calm,Calm,-,N/A,,Clear,0,2013-02-23 02:53:00
7:53 PM,25.0,18.0,75,30.17,10.0,SW,4.6,-,N/A,,Scattered Clouds,230,2013-02-23 03:53:00
8:53 PM,26.1,19.0,75,30.10,10.0,Calm,Calm,-,N/A,,Overcast,0,2013-02-23 04:53:00
9:53 PM,26.1,19.0,75,30.10,10.0,SSE,9.2,-,N/A,,Overcast,160,2013-02-23 05:53:00
10:53 PM,24.1,18.0,77,30.08,10.0,South,10.4,-,N/A,,Partly Cloudy,190,2013-02-23 06:53:00
11:53 PM,23.0,18.0,81,30.06,10.0,SSE,8.1,-,N/A,,Clear,160,2013-02-23 07:53:00